Regional Weather Roundup
Issued by NWS Grand Forks, ND

Home | Current Version | Previous Version | Text Only | Print | Product List | Glossary Off
Versions: 1 2 3 4 5 6 7 8 9 10 11 12 13 14 15 16 17 18 19 20 21 22 23 24 25 26 27 28 29 30 31 32 33 34 35 36 37 38 39 40 41 42 43 44 45 46 47 48 49 50

000
ASUS43 KFGF 272031
RWRFGF
PRAIRIE TO PINES  WEATHER ROUNDUP
NATIONAL WEATHER SERVICE EASTERN NORTH DAKOTA/GRAND FORKS ND
200 PM CST SAT DEC 27 2014

 **SATELLITE DATA USED TO AUGMENT SKY COVER AT AUTOMATED STATIONS**
 *****  WEATHER ACROSS EASTERN NORTH DAKOTA  *****

CITY           SKY/WX    TMP DP  RH WIND       PRES   REMARKS
GRAND FORKS    CLOUDY    19  14  81 NW10      30.02F WCI   7
GRAND FRKS AFB CLOUDY    21  18  86 N6        30.02S WCI  14
GRAND FRKS NWS   N/A     19 N/A N/A MISG        N/A
DEVILS LAKE    CLOUDY    21  12  68 W7        29.95F WCI  13
FARGO          SUNNY     23  15  71 SW9       30.04F WCI  13
WAHPETON ARPT  CLOUDY    23  16  74 W13       30.06F WCI  11
$$

 ***** WEATHER ACROSS CENTRAL AND WESTERN NORTH DAKOTA  *****

CITY           SKY/WX    TMP DP  RH WIND       PRES   REMARKS
BISMARCK       CLOUDY    29  19  66 SW8       29.99F WCI  21
MINOT          PTSUNNY   24  16  71 W16       29.94S WCI  11
JAMESTOWN      CLOUDY    22  16  78 W7        29.99F WCI  13
MINOT AFB      MOSUNNY   23  18  83 NW12      29.94S WCI  11
GARRISON         N/A     25  17  72 W20       29.94F WCI  11
WILLISTON      CLOUDY    25  16  68 SW5       29.98F WCI  19
DICKINSON      PTSUNNY   28  17  63 W21       29.94F WCI  15
HETTINGER      MOSUNNY   28  16  60 W18       29.97F WCI  15
$$

 *****  OTHER AIRPORT OBSERVATIONS IN OUR AREA  *****

CITY           SKY/WX    TMP DP  RH WIND       PRES   REMARKS
WALHALLA       FLURRIES  19  18  93 N9        29.99S WCI   9
GRAFTON AIRPOR NOT AVBL
VALLEY CITY AR CLOUDY    23  21  93 W10       30.00S WCI  12
CANDO          CLOUDY    21  16  79 W7        29.95F WCI  13
CAVALIER APRT  MOCLDY    18  14  86 S3        29.99F
GWINNER        CLEAR     23  19  86 SW12      30.05S WCI  12
ROLLA          FLURRIES  18  16  93 CALM      29.93S
 ***** THE ABOVE OBSERVATIONS ARE NON NWS ARE NOT QUALITY
       CONTROLLED AND MAY MIS-REPORT RAIN FOR SNOW...
$$

  *****  WEATHER ACROSS NORTHERN MINNESOTA  *****

CITY           SKY/WX    TMP DP  RH WIND       PRES   REMARKS
FLAG ISLAND    MOSUNNY   12   7  79 W8        29.94S WCI   1
WARROAD        MOSUNNY   14   9  79 W7        29.96S WCI   4
ROSEAU         MOSUNNY   16   9  73 SW9       29.97S WCI   4
HALLOCK          N/A     16  12  86 SW6       30.00F FOG     WCI   7
THF RVR FALLS  CLOUDY    12   9  85 SW9       30.01R WCI   0
BAUDETTE       CLOUDY    13   5  70 VRB7      29.95F WCI   3
WASKISH        CLOUDY    12   7  79 SW7       29.97S WCI   2
CROOKSTON      CLOUDY    16  12  86 W5        30.04S WCI   9
STEPHEN NDAWN    N/A     14  10  85 SW8         N/A  WCI   3
GREENBUSH NDAW   N/A     12  10  92 W10         N/A  WCI  -1
$$
  *****  WEATHER ACROSS CENTRAL AND WEST MINNESOTA  *****

CITY           SKY/WX    TMP DP  RH WIND       PRES   REMARKS
FOSSTON        LGT SNOW  12  10  92 SW10      30.00S WCI  -1
BEMIDJI        CLOUDY    16   6  63 SW5       29.97S WCI   9
PARK RAPIDS    PTSUNNY   20   5  52 W10       29.98F WCI   9
ELBOW LAKE     CLOUDY    21  14  74 SW10      30.05F WCI  10
WADENA         MOSUNNY   19   9  63 SW10      30.01F WCI   8
DETROIT LAKES  MIX PCPN  18  14  86 SW8       30.02S WCI   7
MOORHEAD       SUNNY     21  18  86 SW9       30.05S WCI  11
FERGUS FALLS   CLOUDY    19  10  68 SW9       30.08F WCI   9
MORRIS MN      SUNNY     19  12  73 SW10      30.07F WCI   8
STAPLES        CLOUDY    19   5  53 SW5       30.01F WCI  13
$$
  *****  WEATHER ELSEWHERE ACROSS MINNESOTA  *****

CITY           SKY/WX    TMP DP  RH WIND       PRES   REMARKS
DULUTH         FAIR      22   8  55 W10       29.94S WCI  11
INTRNTL FALLS  CLOUDY    15   5  64 SW5       29.93F WCI   8
ELY            SUNNY     18   7  62 W7        29.91F WCI   8
CLOQUET        SUNNY     23   9  54 W9        29.96S WCI  13
WHEATON        CLOUDY    23  18  80 W8        30.09F WCI  14
BRAINERD       CLOUDY    22   4  46 SW13      30.02F WCI  10
HIBBING        SUNNY     21   5  50 VRB5      29.95F WCI  15
ALEXANDRIA     SUNNY     19   9  65 SW10      30.04F WCI   7
SAINT CLOUD    SUNNY     26   7  44 W7        30.06F WCI  18
MINNEAPOLIS    MOSUNNY   25  15  66 W12       30.07F WCI  14
$$

  *****  WEATHER ACROSS SOUTH DAKOTA  *****

CITY           SKY/WX    TMP DP  RH WIND       PRES   REMARKS
SIOUX FALLS    SUNNY     15   9  76 W8        30.16F WCI   4
BROOKINGS      NOT AVBL
WATERTOWN      MOSUNNY   15   9  76 SW14      30.07F WCI   0
HURON          PTSUNNY   16  10  77 SW6       30.14F WCI   7
SISSETON         N/A     24  17  74 W14       30.06F WCI  12
ABERDEEN       SUNNY     26  18  71 SW12      30.09F WCI  16
MITCHELL       SUNNY     20  13  74 SW8       30.16F WCI  10
PIERRE         SUNNY     22  16  78 SW6       30.10F WCI  14
MOBRIDGE       SUNNY     25  19  78 S8        30.01F WCI  16
RAPID CITY     SUNNY     21  13  71 VRB3      30.04F
$$

  *****  SOME WEATHER IN NEARBY STATES *****

CITY           SKY/WX    TMP DP  RH WIND       PRES   REMARKS
GLASGOW MT     CLOUDY    27  16  63 SW7       29.97F WCI  19
GREAT FALLS MT SUNNY     28  19  69 SW21      29.93F WCI  15
CHEYENNE WY    SUNNY     19   5  54 SW13      30.02F WCI   6
SCOTTSBLUFF NE SUNNY     17   9  70 NW7       30.11F WCI   8
OMAHA NE       MOSUNNY   27  18  69 NW12      30.24S WCI  17
DES MOINES IA  CLOUDY    30  21  69 NW13      30.18R WCI  20
DAVENPORT IA   CLOUDY    31  24  75 NW23      30.10R WCI  18
CHICAGO IL     CLOUDY    37  31  78 W21G28    29.99R
EAU CLAIRE WI  CLOUDY    24  18  77 W13       30.03R WCI  12
LA CROSSE WI   PTSUNNY   30  24  78 W16       30.04R WCI  19
$$

  *****  SOME NATIONAL WEATHER *****

CITY           SKY/WX    TMP DP  RH WIND       PRES   REMARKS
LA GUARDIA NY  PTSUNNY   54  33  45 SW6       30.15F
RALEIGH NC     MOSUNNY   62  36  37 W6        30.24F
ATLANTA GA     CLOUDY    59  43  55 S5        30.22R
NEW ORLEANS LA CLOUDY    70  67  90 S14       30.05F FOG
OKLAHOMA CITY  PTSUNNY   34  22  61 N15       30.26F WCI  24
ALBUQUERQUE NM MOSUNNY   36  13  38 N9        30.20F
SALT LAKE CITY PTSUNNY   27  15  61 S13       30.32F WCI  16
LOS ANGELES CA MOSUNNY   58  19  22 W8        30.32F
BOISE ID       CLOUDY    32  18  56 E12       30.29F WCI  23
SEATTLE WA     CLOUDY    47  43  86 SW17G36   30.08F
$$

*** WEATHER ACROSS MANITOBA...SASKATCHEWAN AND ONTARIO ***
                ***ONTARIO***

CITY           SKY/WX    TMP DP  RH WIND       PRES   REMARKS
GERALDTON      FLURRIES  18  14  86 NE5       29.85F WCI  11
THUNDER BAY    PTSUNNY   19  12  73 NW6       29.92  WCI  11
SIOUX LOOKOUT  FLURRIES   3   1  92 SW5       29.90F WCI  -6
TORONTO        PTSUNNY   48  41  76 S12       29.91F
BIG TROUT LK   FLURRIES  -4  -9  77 SW5       29.94F WCI -15
PICKLE LAKE    PTSUNNY    1  -6  71 S8        29.88F WCI -12
DRYDEN         FLURRIES   7   5  92 SW6       29.90F WCI  -3
KENORA         FLURRIES   9   3  78 SW9       29.91  WCI  -5
$$
                *** MANITOBA***

CITY           SKY/WX    TMP DP  RH WIND       PRES   REMARKS
BRANDON        FLURRIES  12   5  73 N10       29.98F WCI  -1
DAUPHIN        FLURRIES   0  -4  85 NE9       30.07R WCI -16
ISLAND LAKE    MOCLDY    -8 -13  77 W7        29.95F WCI -22
PILOT MOUND      N/A     16  10  79 NW8         N/A  WCI   5
THE PAS        MOSUNNY  -17 -22  76 W8        30.12S WCI -34
THOMPSON       PTCLDY   -15 -22  70 NW7       30.03S WCI -31
WINNIPEG       PTSUNNY    9   1  72 NW10      30.02R WCI  -6
CHURCHILL      CRYSTALS  -8 -13  77 N23G30    30.01  BLWGSNOWWCI -33
GILLAM         FLURRIES -17 -24  70 W9        29.97  WCI -36
$$
                ***SASKATCHEWAN***

CITY           SKY/WX    TMP DP  RH WIND       PRES   REMARKS
ESTEVAN        FLURRIES N/A N/A N/A NW16        N/A
KINDERSLEY     CLOUDY    14  10  85 E12       29.92  WCI   0
LLOYDMINSTER   FLURRIES   9   5  85 E13       29.95  WCI  -7
PRINCE ALBERT  MOSUNNY  -11 -17  77 NW3       30.13S
REGINA         LGT SNOW  12   9  85 N12       29.99  WCI  -2
YORKTON        SUNNY     -4  -9  77 N7        30.03S WCI -18
N. BATTLEFORD  FLURRIES   3  -2  78 E15       30.04F WCI -15
LA RONGE       SUNNY    -18 -24  76 W3        30.18
SASKATOON      CLOUDY     1  -6  71 NE8       30.08S WCI -12
SWIFT CURRENT  CLOUDY    21  18  86 SW7       29.89F WCI  13
$$
NOTE: THESE ARE AUTOMATED STATIONS WITH LIMITED QUALITY CONTROL
      "FAIR" INDICATES FEW OR NO CLOUDS BELOW 12,000 FEET WITH NO
      SIGNIFICANT WEATHER AND/OR OBSTRUCTIONS TO VISIBILITY.
      SKY/WX - SKY CONDITION AND SIGNIFICANT WEATHER.
      TMP - AIR TEMPERATURE.    DP   - DEWPOINT TEMPERATURE.
      RH  - RELATIVE HUMIDITY.  PRES - PRESSURE.
      HX  - HEAT INDEX.         WCI  - WIND CHILL INDEX.
$


USA.gov is the U.S. government's official web portal to all federal, state and local government web resources and services.